Zurück zum Katalog

DELTA 1 DEB

AktivSSO
NORAD 10826·DEBRIS·🇺🇸 United States

Gestartet Jul 29, 1976 von Vandenberg Space Force Base

Loading…

Nächste Überflüge (nächste 24 Stunden)

TLE

AktuellSource: Space-Track

Epoche: Sep 14, 2026, 06:41 UTC

1 10826U 76077BW  26257.27887522  .00001923  00000-0  10833-1 0  9998
2 10826 101.9398 175.7281 0141889 298.5421 214.5363 12.60603139260220

Verfolge DELTA 1 DEB in Echtzeit mit AllMySat

Download on the App Store